Last 24 Hours

Thomas Mountain

10 Minute Data | America/Los_Angeles
as of 5/3/26 6:14 PM PDT
Date & Time Temp (°F) Dew Pt (°F) RH (%) Wind Spd (mph) Wind Dir (°) Wind Gust (mph) Wind Gst Dir (°) Daily Max Temp (°F) Daily Min Temp (°F)
5/3/26 - 1810 51.8 44.8 77 12.2 W | 274 19.7 W | 278 65.9 51.4
5/3/26 - 1800 53.0 45.0 74 11.5 WSW | 256 18.8 WSW | 245 65.9 52.7
5/3/26 - 1750 54.0 45.1 71 12.5 WSW | 249 21.3 W | 265 65.9 53.2
5/3/26 - 1740 54.1 45.1 71 13.8 WSW | 247 21.9 WSW | 252 65.9 53.6
5/3/26 - 1730 54.4 45.8 72 12.7 WSW | 248 19.5 WSW | 246 65.9 53.7
5/3/26 - 1720 54.7 46.4 73 12.6 WSW | 239 19.3 WSW | 237 65.9 53.7
5/3/26 - 1710 54.6 47.1 76 12.8 WSW | 238 19.1 SW | 225 65.9 53.7
5/3/26 - 1700 54.3 47.2 77 13.4 WSW | 238 19.1 SW | 233 65.9 53.7
5/3/26 - 1650 54.9 47.3 75 14.1 WSW | 239 20.8 WSW | 239 65.9 53.7
5/3/26 - 1640 54.7 47.0 75 13.4 WSW | 239 21.5 WSW | 245 65.9 53.7
5/3/26 - 1630 54.4 46.7 75 14.2 WSW | 245 22.6 WSW | 239 65.9 53.7
5/3/26 - 1620 54.3 46.1 74 14.4 WSW | 247 22.0 WSW | 239 65.9 53.7
5/3/26 - 1610 54.8 45.6 71 12.9 WSW | 241 21.3 SW | 236 65.9 54.2
5/3/26 - 1600 54.7 45.4 71 11.5 WSW | 246 19.9 W | 264 65.9 54.2
5/3/26 - 1550 55.2 45.5 70 13.4 WSW | 246 22.1 WSW | 240 65.9 54.2
5/3/26 - 1540 54.9 45.9 71 13.2 WSW | 242 20.1 W | 259 65.9 54.2
5/3/26 - 1530 55.0 46.0 72 13.6 WSW | 242 23.5 WSW | 245 65.9 54.2
5/3/26 - 1520 55.8 46.1 70 14.9 WSW | 252 22.1 SW | 234 65.9 54.9
5/3/26 - 1510 55.8 46.3 70 11.3 WSW | 249 19.4 WSW | 250 65.9 54.9
5/3/26 - 1500 56.0 46.3 70 12.5 WSW | 246 20.1 WSW | 241 65.9 55.5
5/3/26 - 1450 56.9 46.6 68 12.2 WSW | 245 18.6 SW | 236 65.9 55.6
5/3/26 - 1440 57.1 46.8 68 13.6 WSW | 249 21.0 WSW | 254 65.9 55.6
5/3/26 - 1430 56.8 47.0 69 15.8 WSW | 248 22.1 WSW | 254 65.9 55.6
5/3/26 - 1420 56.8 47.5 71 15.9 WSW | 244 25.1 SW | 226 65.9 55.6
5/3/26 - 1410 56.8 47.3 71 16.4 WSW | 247 25.4 WSW | 252 65.9 55.6
5/3/26 - 1400 57.9 46.3 65 17.4 WSW | 245 24.2 WSW | 246 65.9 57.0
5/3/26 - 1350 58.4 46.1 64 17.5 WSW | 242 25.9 SW | 231 65.9 57.7
5/3/26 - 1340 58.7 45.0 60 17.6 WSW | 247 23.4 WSW | 247 65.9 57.9
5/3/26 - 1330 59.9 46.3 61 16.1 WSW | 243 22.9 WSW | 246 65.9 58.4
5/3/26 - 1320 60.7 46.1 59 15.7 WSW | 244 23.6 WSW | 246 65.9 58.4
5/3/26 - 1310 60.0 43.6 55 18.2 WSW | 247 28.6 WSW | 242 65.9 58.4
5/3/26 - 1300 59.9 46.2 60 17.2 WSW | 250 27.1 WSW | 242 65.9 58.4
5/3/26 - 1250 60.5 45.7 58 16.5 WSW | 251 24.3 WSW | 249 65.9 58.4
5/3/26 - 1240 60.6 44.2 55 19.0 WSW | 248 26.2 WSW | 237 65.9 58.4
5/3/26 - 1230 60.8 43.0 52 18.6 WSW | 249 25.2 W | 259 65.9 58.4
5/3/26 - 1220 61.3 45.0 55 17.6 WSW | 245 25.4 WSW | 258 65.9 58.4
5/3/26 - 1210 62.3 42.7 49 17.2 WSW | 244 24.7 WSW | 253 65.9 58.4
5/3/26 - 1200 61.6 42.7 50 18.3 WSW | 247 25.4 WSW | 247 65.9 58.4
5/3/26 - 1150 63.3 39.7 42 18.1 WSW | 245 25.9 WSW | 245 65.9 58.4
5/3/26 - 1140 64.8 36.2 35 16.4 SW | 233 25.6 SW | 218 65.9 58.4
5/3/26 - 1130 65.0 39.0 38 14.7 SW | 234 25.2 SSW | 209 65.9 58.4
5/3/26 - 1120 64.9 38.5 38 14.3 SW | 234 22.1 WSW | 238 65.9 58.4
5/3/26 - 1110 64.4 39.8 40 14.3 SW | 231 21.8 SW | 220 65.5 58.4
5/3/26 - 1100 64.5 38.3 38 15.0 SW | 236 22.3 WSW | 242 65.5 58.4
5/3/26 - 1050 64.1 37.4 37 13.6 WSW | 241 23.7 WSW | 247 65.5 58.4
5/3/26 - 1040 64.7 37.4 36 12.2 SW | 232 21.7 SSW | 207 65.5 58.4
5/3/26 - 1030 62.8 36.8 38 11.9 SW | 228 18.7 SW | 225 64.4 58.4
5/3/26 - 1020 62.8 37.5 39 9.2 SW | 235 18.0 SW | 227 63.9 58.4
5/3/26 - 1010 62.0 34.4 35 6.5 SW | 220 13.4 SW | 235 63.4 58.4
5/3/26 - 1000 62.3 33.1 33 8.5 WSW | 246 15.1 WSW | 252 63.4 58.4
5/3/26 - 0950 62.4 33.3 34 8.0 SW | 216 11.9 S | 186 63.0 58.4
5/3/26 - 0940 61.9 32.1 32 7.6 SW | 225 14.5 WSW | 238 62.8 58.4
5/3/26 - 0930 62.2 30.9 31 9.7 SW | 220 15.1 SSW | 201 62.8 58.4
5/3/26 - 0920 62.0 29.3 29 9.3 SW | 230 15.3 SW | 227 62.8 58.4
5/3/26 - 0910 62.3 30.0 29 7.6 SW | 235 16.0 SW | 223 62.8 58.4
5/3/26 - 0900 62.0 29.6 29 7.8 SW | 228 12.1 WSW | 243 62.5 58.4
5/3/26 - 0850 61.9 29.7 29 5.2 WSW | 244 9.2 SSW | 197 62.4 58.4
5/3/26 - 0840 61.3 29.2 29 5.3 WSW | 242 7.9 SW | 227 62.0 58.4
5/3/26 - 0830 61.5 29.1 29 5.6 SSW | 212 10.9 SSW | 202 62.0 58.4
5/3/26 - 0820 61.4 29.2 29 4.2 SW | 220 9.4 SW | 215 62.0 58.4
5/3/26 - 0810 61.2 29.1 29 3.3 WSW | 254 5.9 W | 261 62.0 58.4
5/3/26 - 0800 61.1 29.0 30 3.1 WSW | 252 6.4 W | 262 62.0 58.4
5/3/26 - 0750 60.9 28.1 29 3.2 W | 277 6.2 W | 276 62.0 58.4
5/3/26 - 0740 60.3 27.4 28 1.1 S | 176 3.2 SSE | 168 62.0 58.4
5/3/26 - 0730 59.7 26.7 28 2.0 W | 266 4.3 W | 281 62.0 58.4
5/3/26 - 0720 60.0 26.8 28 3.0 WSW | 254 7.5 SW | 229 62.0 58.4
5/3/26 - 0710 60.2 27.0 28 3.2 WSW | 248 6.3 SW | 234 62.0 58.4
5/3/26 - 0700 59.9 26.3 27 1.6 WNW | 301 2.9 WNW | 288 62.0 58.4
5/3/26 - 0650 59.5 25.6 27 2.0 W | 260 3.4 W | 270 62.0 58.4
5/3/26 - 0640 59.1 25.8 28 3.6 WNW | 283 6.4 W | 266 62.0 58.4
5/3/26 - 0630 59.6 25.9 27 4.4 WNW | 298 6.9 WNW | 299 62.0 58.4
5/3/26 - 0620 59.8 25.4 27 3.3 NW | 316 5.1 NNW | 332 62.0 58.4
5/3/26 - 0610 59.7 25.1 26 2.9 WNW | 298 5.1 W | 267 62.0 58.4
5/3/26 - 0600 59.8 24.4 26 2.8 NW | 304 4.8 WNW | 299 62.0 58.4
5/3/26 - 0550 59.7 23.3 24 3.9 NNW | 347 5.3 N | 8 62.0 58.4
5/3/26 - 0540 58.9 22.7 25 3.8 NW | 316 4.7 NW | 310 62.0 58.4
5/3/26 - 0530 58.6 22.6 25 4.7 WNW | 283 8.1 W | 273 62.0 58.4
5/3/26 - 0520 58.7 22.8 25 5.0 W | 280 9.1 W | 274 62.0 58.4
5/3/26 - 0510 58.6 23.3 25 3.5 WNW | 298 7.4 W | 278 62.0 58.4
5/3/26 - 0500 58.9 23.8 26 3.7 WNW | 286 5.7 W | 277 62.0 58.8
5/3/26 - 0450 58.8 24.4 26 2.6 WNW | 289 4.3 WNW | 285 62.0 58.8
5/3/26 - 0440 58.9 24.4 26 3.4 W | 273 5.8 W | 268 62.0 58.8
5/3/26 - 0430 59.3 24.8 26 3.2 W | 275 5.3 W | 272 62.0 58.9
5/3/26 - 0420 59.7 25.0 26 3.8 W | 270 8.3 WSW | 254 62.0 59.4
5/3/26 - 0410 59.9 25.0 26 4.9 W | 278 10.1 W | 277 62.0 59.6
5/3/26 - 0400 60.0 24.8 26 2.8 WNW | 291 5.4 W | 279 62.0 59.6
5/3/26 - 0350 59.9 24.9 26 3.4 W | 278 6.1 WNW | 284 62.0 59.6
5/3/26 - 0340 60.0 24.4 25 3.7 WNW | 295 7.2 WSW | 253 62.0 59.6
5/3/26 - 0330 60.6 24.1 24 4.4 W | 280 7.8 WNW | 283 62.0 60.0
5/3/26 - 0320 60.7 24.4 25 6.1 WNW | 285 9.4 WNW | 287 62.0 60.0
5/3/26 - 0310 60.6 24.1 25 3.6 NW | 320 5.7 WNW | 288 62.0 60.0
5/3/26 - 0300 60.3 24.0 25 2.2 N | 358 4.4 N | 9 62.0 60.0
5/3/26 - 0250 60.7 24.0 24 1.5 NNW | 329 3.1 NW | 323 62.0 60.7
5/3/26 - 0240 61.0 23.6 24 2.2 WNW | 296 4.7 W | 281 62.0 60.7
5/3/26 - 0230 61.0 23.3 23 3.1 W | 280 5.5 W | 276 62.0 60.7
5/3/26 - 0220 61.1 23.4 23 4.5 W | 279 8.3 W | 277 62.0 60.7
5/3/26 - 0210 60.9 23.4 24 3.7 WNW | 288 6.4 W | 276 62.0 60.7
5/3/26 - 0200 61.0 23.4 23 5.0 WNW | 282 8.8 W | 272 62.0 60.7
5/3/26 - 0150 61.6 23.3 23 3.6 NW | 310 6.3 WNW | 302 62.0 61.5
5/3/26 - 0140 61.6 23.3 23 3.3 NNW | 332 5.5 NNW | 342 62.0 61.5
5/3/26 - 0130 61.8 23.1 23 3.9 NW | 304 7.2 W | 272 62.0 61.6
5/3/26 - 0120 61.9 22.8 22 2.6 NW | 316 3.3 WNW | 288 62.0 61.6
5/3/26 - 0110 61.8 22.8 22 2.9 NW | 324 3.4 NNW | 334 61.9 61.6
5/3/26 - 0100 61.6 23.0 23 3.1 NNW | 335 3.7 NW | 308 73.6 58.9
5/3/26 - 0050 61.4 22.7 22 2.9 NW | 308 4.3 WNW | 286 73.6 58.9
5/3/26 - 0040 61.5 23.0 23 3.1 WNW | 302 4.2 WNW | 291 73.6 58.9
5/3/26 - 0030 61.6 23.1 23 3.7 NW | 308 5.0 NW | 315 73.6 58.9
5/3/26 - 0020 61.6 23.4 23 2.6 WNW | 295 3.9 NW | 315 73.6 58.9
5/3/26 - 0010 61.8 23.4 23 2.4 W | 274 4.0 W | 280 73.6 58.9
5/3/26 - 0000 61.7 23.2 23 3.4 NW | 311 4.9 NW | 308 73.6 58.9
5/2/26 - 2350 61.6 23.5 23 3.7 NW | 318 5.0 NW | 310 73.6 58.9
5/2/26 - 2340 61.8 24.1 24 3.5 NW | 314 4.9 WNW | 284 73.6 58.9
5/2/26 - 2330 61.6 24.2 24 2.0 NW | 308 3.2 NW | 308 73.6 58.9
5/2/26 - 2320 61.7 24.1 24 2.9 WNW | 301 4.4 WNW | 292 73.6 58.9
5/2/26 - 2310 61.8 24.7 24 2.7 NW | 308 4.5 WNW | 297 73.6 58.9
5/2/26 - 2300 62.0 27.0 26 2.2 NW | 308 3.6 WNW | 300 73.6 58.9
5/2/26 - 2250 61.6 31.1 32 2.6 NNW | 330 4.2 NNW | 338 73.6 58.9
5/2/26 - 2240 61.2 34.9 37 4.0 NNW | 344 4.9 NNW | 340 73.6 58.9
5/2/26 - 2230 60.4 36.0 40 4.2 NNW | 346 5.6 N | 1 73.6 58.9
5/2/26 - 2220 60.4 35.4 39 4.8 N | 351 6.9 N | 3 73.6 58.9
5/2/26 - 2210 60.5 32.4 34 5.2 N | 354 6.1 N | 353 73.6 58.9
5/2/26 - 2200 60.6 31.9 34 4.5 N | 352 5.6 N | 2 73.6 58.9
5/2/26 - 2150 61.3 29.0 29 4.7 N | 355 5.6 N | 352 73.6 58.9
5/2/26 - 2140 61.9 28.4 28 3.9 NNW | 348 5.2 N | 1 73.6 58.9
5/2/26 - 2130 61.8 28.4 28 3.5 N | 357 5.6 NNE | 22 73.6 58.9
5/2/26 - 2120 62.8 28.3 27 4.2 N | 2 5.1 N | 0 73.6 58.9
5/2/26 - 2110 62.5 28.7 28 4.0 N | 4 5.2 N | 353 73.6 58.9
5/2/26 - 2100 62.2 29.4 29 5.1 N | 359 5.8 N | 0 73.6 58.9
5/2/26 - 2050 61.9 27.6 27 5.4 N | 2 7.1 N | 9 73.6 58.9
5/2/26 - 2040 61.9 26.3 26 3.5 NNW | 348 5.1 NNW | 347 73.6 58.9
5/2/26 - 2030 62.0 26.7 26 2.9 NNW | 348 6.0 NNW | 327 73.6 58.9
5/2/26 - 2020 61.9 27.1 26 3.3 WNW | 303 6.8 W | 276 73.6 58.9
5/2/26 - 2010 62.3 26.7 26 5.4 W | 277 8.6 WSW | 247 73.6 58.9
5/2/26 - 2000 62.6 27.3 26 7.3 W | 277 12.0 W | 278 73.6 58.9
5/2/26 - 1950 62.7 28.3 27 7.4 W | 280 13.8 WNW | 283 73.6 58.9
5/2/26 - 1940 62.9 29.1 28 7.5 W | 279 12.1 WNW | 284 73.6 58.9
5/2/26 - 1930 63.3 30.7 29 6.0 W | 266 11.0 W | 270 73.6 58.9
5/2/26 - 1920 63.8 31.8 30 8.0 W | 281 12.4 W | 281 73.6 58.9
5/2/26 - 1910 64.4 32.6 30 9.5 W | 272 14.2 WNW | 288 73.6 58.9
5/2/26 - 1900 65.0 32.5 30 9.6 W | 274 15.5 W | 273 73.6 58.9
5/2/26 - 1850 65.7 32.3 29 8.6 W | 269 14.6 WNW | 300 73.6 58.9
5/2/26 - 1840 66.1 32.6 29 10.9 W | 277 18.1 W | 272 73.6 58.9
5/2/26 - 1830 66.9 34.2 30 10.4 W | 264 17.3 W | 272 73.6 58.9
5/2/26 - 1820 67.6 35.4 30 10.6 WSW | 251 17.0 WSW | 258 73.6 58.9
5/2/26 - 1810 68.2 36.3 31 13.1 WSW | 248 19.4 SW | 234 73.6 58.9
Max 68.2 47.5 77 19.0 - 28.6 - 73.6 61.6
Avg 60.4 32.8 38 7.9 - 12.5 - - -
Min 51.8 22.6 22 1.1 - 2.9 - 61.9 51.4